Weather in Pernem

India     15°43′12″N   73°47′52″E
temp.,
°C
wind,
m/s
gust,
m/s
humid.,
%
clouds,
%
prec.,
mm/h
press.,
hPa
HPBL,
m
19 april, mon
mon1923:30+27se128048 0.0 101385
02:30+26s12848 0.0 101074
05:30+26e008656 0.0 101049
08:30+30nw12668 0.0 1012817
11:30+34wsw54495 0.0 10111453
14:30+33wsw65530 0.0 1008931
17:30+31w45573 0.0 1008975
20:30+28wnw25710 0.0 1010221
20 april, tue
tue2023:30+27nw23750 0.0 1011113
02:30+25nne11794 0.0 100952
05:30+24nne11835 0.0 100936
08:30+29nnw23625 0.0 1011843
11:30+34w55421 0.0 10101482
14:30+33w65475 0.0 1007979
17:30+30wnw6755100 0.0 1007818
20:30+28nw48690 0.0 1010605
21 april, wed
wed2123:30+26nnw37750 0.0 1010319
02:30+25nne12811 0.0 100960
05:30+24n248613 0.0 1009119
08:30+29n25638 0.0 1012846
11:30+35w553937 0.0 10101473
14:30+33wnw774996 0.0 1008830
17:30+31wnw6756100 0.0 1008851
20:30+28nw5968100 0.0 1010718
22 april, thu
thu2223:30+27nnw3872100 0.0 1010639
02:30+25nne2479100 0.0 1009128
05:30+24ne23846 0.0 101093
08:30+30nnw455766 0.0 1011714
11:30+37w553259 0.0 10101527
14:30+34wnw994820 0.0 1007699
17:30+31wnw675494 0.0 1008932
20:30+28nw257441 0.0 1010205
23 april, fri
fri2323:30+27n1280100 0.0 101182
02:30+25nne118599 0.0 100955
05:30+25nnw228850 0.0 100958
08:30+29ese0167100 0.0 1011582
11:30+34wsw4447100 0.0 10101415
14:30+32w6653100 0.0 1008831
17:30+31wnw5654100 0.0 10081006
20:30+28nw376889 0.0 1010463